Regional Weather Roundup
Issued by NWS

Home | Current Version | Previous Version | Text Only | Print | Product List | Glossary On
Versions: 1 2 3 4 5 6 7 8 9 10 11 12 13 14 15 16 17 18 19 20 21 22 23 24 25 26 27 28 29 30 31 32 33 34 35 36 37 38 39 40 41 42 43 44 45 46 47 48 49 50
518
ASUS44 KLIX 282305
RWRLA
LOUISIANA WEATHER ROUNDUP
NATIONAL WEATHER SERVICE NEW ORLEANS LA
500 PM CST WED JAN 28 2015

NOTE: "FAIR" INDICATES FEW OR NO CLOUDS BELOW 12,000 FEET WITH NO
      SIGNIFICANT WEATHER AND/OR OBSTRUCTIONS TO VISIBILITY.
      SKY/WX - SKY CONDITION AND SIGNIFICANT WEATHER.
      TMP - AIR TEMPERATURE.    DP   - DEWPOINT TEMPERATURE.
      RH  - RELATIVE HUMIDITY.  PRES - PRESSURE.
      HX  - HEAT INDEX.         WCI  - WIND CHILL INDEX.

*  THESE STATIONS ARE NOT NWS OR FAA STATIONS AND ARE NOT UNDER
   NWS QUALITY CONTROL.

LAZ040-048-061>063-065-066-069-290000-
SOUTHEAST LOUISIANA

CITY           SKY/WX    TMP DP  RH WIND       PRES   REMARKS
N.O. AUDUBON     N/A     61  47  60 MISG        N/A
N.O. INTL ARPT PTCLDY    65  43  44 SE9       30.23R
N.O. LAKEFRONT CLEAR     63  43  48 SE8       30.24S
N.O. DOWNTOWN* NOT AVBL
SLIDELL        CLEAR     60  40  47 S6        30.23S
BATON ROUGE    CLEAR     65  34  31 SE7       30.21R
BOOTHVILLE     CLEAR     57  47  69 NE6       30.25S
BELLE CHASSE   PTCLDY    60  43  53 SE8       30.24R
BOGALUSA*        N/A     70  32  24 S7        30.22S
GALLIANO*      CLEAR     63  47  55 MISG      30.24S
NEW ROADS*     FAIR      67  40  37 SE6       30.20S
GONZALES*      FAIR      68  42  38 SE6       30.21S
HAMMOND*       CLEAR     63  39  42 S7        30.24S
HOUMA*         CLEAR     63  46  55 SE9       30.23S
PORT FOURCHON* CLEAR     63  50  63 E10       30.26S

$$

LAZ041-044-053-054-290000-
SOUTHWEST LOUISIANA

CITY           SKY/WX    TMP DP  RH WIND       PRES   REMARKS
LAKE CHARLES   CLEAR     65  40  39 S13       30.18S
LAFAYETTE      PTCLDY    66  44  45 S8        30.21S
PATTERSON      CLEAR     64  45  48 SE8       30.22S
SALT POINT       N/A     60  46  59 SE5       30.22S
NEW IBERIA     PTCLDY    65  46  50 S14       30.22S
CHENAULT AIRPK CLEAR     66  43  42 S13       30.19S

$$

LAZ027-028-290000-
CENTRAL LOUISIANA

CITY           SKY/WX    TMP DP  RH WIND       PRES   REMARKS
FORT POLK      CLEAR     70  40  33 S15       30.13F
ALEXANDRIA INT MOCLDY    68  42  38 SE10      30.14S
ALEXANDRIA     MOCLDY    71  43  36 S8        30.16S

$$

LAZ001-002-290000-
NORTHWEST LOUISIANA

CITY           SKY/WX    TMP DP  RH WIND       PRES   REMARKS
SHREVEPORT     MOCLDY    71  42  35 S10       30.07S
BARKSDALE AFB  CLEAR     69  42  36 S13       30.07S
DTN SHREVEPORT PTCLDY    70  40  33 S12       30.07S

$$

LAZ014-016-290000-
NORTHEAST LOUISIANA

CITY           SKY/WX    TMP DP  RH WIND       PRES   REMARKS
MONROE         CLEAR     70  43  37 SE5       30.13F
TALLULAH       CLEAR     68  40  35 SE8       30.16S

$$




USA.gov is the U.S. government's official web portal to all federal, state and local government web resources and services.